sat.trackr.live / text

‹ back to catalog

TIANMU-1 05

NORAD 55975 · 2023-039C

PAYLOAD ACTIVE UNKNOWN

§ Identity

Operator
Country
PRC
Launch date
2023-03-22
Launch site
JSC
Launch vehicle
Mass (kg)
RCS (m²)

Purposes: earth_obs

External: N2YO · Heavens-Above · Gunter

§ Orbital elements

Epoch: 2026-05-25T04:41:40.318656Z

Period
93.12 min
Inclination
97.5212°
Eccentricity
0.0002980
Mean motion
15.46469608 rev/d
Perigee alt
425.0 km
Apogee alt
429.1 km
Semi-major
6,805.2 km
B*
2.8918e-4
RAAN
317.9023°
Arg perigee
174.2002°
Mean anomaly
185.9282°
Rev number
17,726

§ Raw data

TIANMU-1 051 55975U 23039C   26145.19560554  .00014250  00000+0  28918-3 0  99932 55975  97.5212 317.9023 0002980 174.2002 185.9282 15.46469608177266

JSON: /api/v1/satellites/55975 · /tle

For live sub-satellite position, see the globe view (requires WebGL).

§ Visibility from observer

Set your observer location to see the next 7 days of passes ≥ 10°. The values pass through the URL so the page stays shareable.

No JS? Fill the form by hand. The geolocation button needs JavaScript.